Location: Edisto_Beach
(32.4790°N, 80.3350°W)
Time: 05:57:40
(UTC-04:00)

Amateur Radio Satellites - All Passes

Search period start: 30 June 2015 05:27
Search period end: 01 July 2015 05:27
Location: Edisto_Beach, 32.4790°N, 80.3350°W

Satellite Date Start Highest point End Downlink Frequencies (MHz)
Time Altitude Azimuth
JAS-2 30 Jun 05:36:04 05:42:16 46° 287° (WNW) 05:49:06 435.910
CUBESAT XI-V 30 Jun 05:37:27 05:38:00 10° 67° (ENE) 05:38:53 437.345
RS-15 30 Jun 05:45:09 05:54:21 29° 318° (NW) 06:03:30 29.354- 29.394
Cosmos 2491 30 Jun 06:04:19 06:07:57 13° 279° (W) 06:10:50 435.465 / 435.565
AO-7 30 Jun 06:04:20 06:12:34 61° 291° (WNW) 06:20:42 29.400- 29.500
Cosmos 2504 30 Jun 06:19:14 06:25:45 37° 90° (E) 06:32:13 435.465 / 435.565
CUTE-I 30 Jun 06:33:28 06:36:40 17° 92° (E) 06:40:07 437.470
YUBILEINY 30 Jun 06:33:50 06:39:31 18° 293° (WNW) 06:44:40 435.215
Cubesat XI-IV 30 Jun 07:04:46 07:09:39 36° 97° (E) 07:14:34 437.490
CUBESAT XI-V 30 Jun 07:10:18 07:14:57 65° 260° (W) 07:19:39 437.345
STRAND 1 30 Jun 07:42:31 07:47:38 90° 108° (ESE) 07:52:50 437.568
CUSAT 1 30 Jun 07:51:18 07:55:58 19° 93° (E) 08:00:23 437.405
PRISM 30 Jun 07:56:56 08:01:00 56° 260° (W) 08:05:07 437.425
AO-7 30 Jun 08:02:56 08:03:57 10° 307° (NW) 08:04:18 29.400- 29.500
BRITE-PL 30 Jun 08:06:24 08:06:43 10° 89° (E) 08:07:21 437.365/2234.400
CUTE-I 30 Jun 08:11:54 08:17:04 48° 287° (WNW) 08:22:10 437.470
Cosmos 2504 30 Jun 08:12:48 08:19:11 31° 285° (WNW) 08:25:16 435.465 / 435.565
BEESAT 3 30 Jun 08:16:21 08:19:55 31° 113° (ESE) 08:23:34 437.485
DANDE 30 Jun 08:18:51 08:25:11 27° 93° (E) 08:30:52 436.750
BEESAT 2 30 Jun 08:21:38 08:25:04 27° 112° (ESE) 08:28:38 435.950
O/OREOS (USA 219) 30 Jun 08:44:36 08:49:01 68° 107° (ESE) 08:53:27 437.305
Cubesat XI-IV 30 Jun 08:45:20 08:49:35 23° 291° (WNW) 08:53:40 437.490
AUBIESAT-1 30 Jun 08:51:06 08:54:18 51° 71° (ENE) 08:57:32 437.475
VERMONT LUNAR 30 Jun 08:57:52 09:00:38 30° 146° (SE) 09:03:26 437.305
AIST 2 30 Jun 09:08:00 09:11:12 21° 111° (ESE) 09:14:31 435.215
GONETS M04 30 Jun 09:10:03 09:17:00 29° 87° (E) 09:24:15
DOVE 4 30 Jun 09:12:29 09:15:43 22° 95° (E) 09:19:02 437.250
M-CUBED/EXP-1 PRIME 30 Jun 09:20:44 09:23:52 40° 256° (WSW) 09:27:01 437.505
SEEDS 30 Jun 09:23:49 09:27:10 23° 95° (E) 09:30:37 437.485
CUSAT 1 30 Jun 09:31:09 09:38:33 59° 279° (W) 09:44:23 437.405
BRITE-PL 30 Jun 09:41:32 09:45:44 45° 285° (WNW) 09:49:42 437.365/2234.400
GOMX 1 30 Jun 09:41:40 09:45:55 84° 281° (W) 09:50:02 467.674
HO-68 30 Jun 09:41:59 09:48:58 56° 101° (E) 09:55:58 435.675
ISS 30 Jun 09:43:34 09:46:46 66° 135° (SE) 09:50:00 145.825
PHONESAT 2.4 30 Jun 09:44:26 09:45:57 13° 141° (SE) 09:47:35 2401.200-2431.200
AAUSAT CUBESAT 2 30 Jun 09:47:03 09:50:42 29° 96° (E) 09:54:23 437.432
BEESAT 3 30 Jun 09:55:01 09:57:57 18° 308° (NW) 10:00:47 437.485
BEESAT 2 30 Jun 10:00:00 10:03:09 21° 307° (NW) 10:06:15 435.950
DANDE 30 Jun 10:00:30 10:08:18 49° 280° (W) 10:14:38 436.750
CUTE 1.7 + AOD 2 30 Jun 10:02:33 10:06:51 88° 283° (WNW) 10:11:08 437.475
CANX-2 30 Jun 10:05:10 10:09:27 73° 282° (WNW) 10:13:43 2200.000
COMPASS 1 30 Jun 10:08:26 10:12:39 66° 100° (E) 10:16:50 437.405
CUBEBUG 2 30 Jun 10:17:53 10:21:24 26° 96° (E) 10:25:03 437.445
RS-15 30 Jun 10:25:56 10:32:17 16° 28° (NNE) 10:39:22 29.354- 29.394
UNISAT 6 30 Jun 10:29:10 10:32:32 23° 72° (ENE) 10:35:59 437.425
CINEMA 3 30 Jun 10:33:14 10:37:23 82° 283° (WNW) 10:41:36 145.822/145.860
VERMONT LUNAR 30 Jun 10:34:33 10:37:32 39° 340° (NNW) 10:40:31 437.305
DELFI C3 30 Jun 10:36:07 10:39:44 31° 97° (E) 10:43:24 145.870
QB50P1 30 Jun 10:40:24 10:41:49 12° 69° (ENE) 10:43:28 145.935-145.965
ZACube-1 30 Jun 10:41:19 10:45:01 30° 97° (E) 10:48:48 437.345
AIST 2 30 Jun 10:45:58 10:49:39 27° 305° (NW) 10:53:18 435.215
Cosmos 2499 30 Jun 10:47:34 10:52:09 19° 86° (E) 10:57:03 435.465 / 435.565
DOVE 4 30 Jun 10:50:16 10:53:26 21° 288° (WNW) 10:56:29 437.250
NANOSAT C BR1 30 Jun 10:55:06 10:57:54 18° 71° (ENE) 11:00:49 145.865
UKube-1 30 Jun 10:58:53 11:01:05 14° 93° (E) 11:03:30 .
SEEDS 30 Jun 10:59:30 11:02:53 22° 288° (WNW) 11:06:09 437.485
Oscar 11 30 Jun 11:00:41 11:05:02 81° 283° (WNW) 11:09:22 145.826/435.025
POLYITAN 1 30 Jun 11:02:04 11:05:19 22° 72° (ENE) 11:08:41 437.675
DUCHIFAT 1 30 Jun 11:03:20 11:06:32 22° 72° (ENE) 11:09:49 145.980
GONETS M04 30 Jun 11:04:58 11:13:30 51° 282° (WNW) 11:21:57
ANTELSAT 30 Jun 11:12:30 11:16:51 80° 77° (ENE) 11:21:09 437.575/2403.000
50 SAT 30 Jun 11:12:33 11:14:02 12° 92° (E) 11:15:44 437.505
UWE-3 30 Jun 11:18:43 11:22:53 66° 283° (WNW) 11:27:06 435.000/436.395/437.385
FUNcube-1 30 Jun 11:19:16 11:23:28 89° 283° (WNW) 11:27:44 145.935
PHONESAT 2.4 30 Jun 11:20:13 11:23:39 89° 157° (SSE) 11:27:07 2401.200-2431.200
ISS 30 Jun 11:22:03 11:23:30 12° 330° (NNW) 11:24:52 145.825
AAUSAT CUBESAT 2 30 Jun 11:23:12 11:26:07 18° 289° (WNW) 11:28:53 437.432
TIGRISAT 30 Jun 11:27:06 11:31:26 70° 259° (W) 11:35:42 435.000
HO-68 30 Jun 11:30:45 11:36:18 24° 295° (WNW) 11:41:36 435.675
QB50P2 30 Jun 11:31:35 11:35:43 52° 76° (ENE) 11:39:53 145.880/145.840
POPSAT HIP 1 30 Jun 11:33:34 11:37:43 53° 75° (ENE) 11:41:52 437.405
VELOX 1 30 Jun 11:37:41 11:41:13 24° 96° (E) 11:44:49 145.980
HUMSAT D 30 Jun 11:39:29 11:43:36 65° 101° (E) 11:47:45 437.325/437.525
BUGSAT 1 30 Jun 11:40:56 11:44:54 40° 74° (ENE) 11:48:53 437.445
CUBEBUG 2 30 Jun 11:54:57 11:57:59 19° 288° (WNW) 12:00:54 437.445
DX 1 30 Jun 12:04:51 12:09:12 77° 284° (WNW) 12:13:32 434.975-435.025
UNISAT 6 30 Jun 12:05:45 12:09:16 23° 264° (W) 12:12:38 437.425
DELFI C3 30 Jun 12:12:07 12:14:36 15° 289° (WNW) 12:16:54 145.870
VERMONT LUNAR 30 Jun 12:12:37 12:14:58 19° 356° (N) 12:17:20 437.305
QB50P1 30 Jun 12:13:12 12:17:19 46° 261° (W) 12:21:26 145.935-145.965
ZACube-1 30 Jun 12:18:23 12:21:11 17° 289° (WNW) 12:23:53 437.345
AISAT 30 Jun 12:22:28 12:26:54 90° 100° (E) 12:31:18 437.250
NANOSAT C BR1 30 Jun 12:29:47 12:33:32 30° 263° (W) 12:37:15 145.865
UKube-1 30 Jun 12:33:23 12:37:24 37° 287° (WNW) 12:41:21 .
RS-15 30 Jun 12:36:40 12:48:11 58° 56° (NE) 13:00:11 29.354- 29.394
ESTCUBE 1 30 Jun 12:37:11 12:41:45 80° 102° (ESE) 12:46:16 437.505/2401.250
POLYITAN 1 30 Jun 12:37:40 12:41:09 23° 265° (W) 12:44:31 437.675
Cosmos 2499 30 Jun 12:37:52 12:44:51 54° 280° (W) 12:51:43 435.465 / 435.565
DUCHIFAT 1 30 Jun 12:38:44 12:42:13 24° 264° (W) 12:45:38 145.980
SPROUT 30 Jun 12:41:02 12:43:51 18° 93° (E) 12:46:48 437.525
50 SAT 30 Jun 12:45:15 12:48:49 34° 286° (WNW) 12:52:22 437.505
CUBEBUG 1 30 Jun 12:55:37 12:59:59 72° 284° (WNW) 13:04:17 437.445
PHONESAT 2.4 30 Jun 12:58:59 13:01:57 26° 348° (NNW) 13:04:56 2401.200-2431.200
VELOX 1 30 Jun 13:14:08 13:17:42 23° 289° (WNW) 13:21:07 145.980
BUGSAT 1 30 Jun 13:18:32 13:20:34 13° 268° (W) 13:22:22 437.445
Gurwin Techsat 1B 30 Jun 13:38:56 13:39:59 11° 65° (ENE) 13:41:24 435.225
TISAT 1 30 Jun 13:40:26 13:44:36 62° 101° (E) 13:48:43 437.305
SWISSCUBE 30 Jun 13:48:16 13:49:15 11° 90° (E) 13:50:37 437.505
VERMONT LUNAR 30 Jun 13:49:50 13:52:32 25° 13° (NNE) 13:55:17 437.305
ITUPSAT 1 30 Jun 13:51:43 13:52:13 10° 90° (E) 13:53:07 437.325
Oscar 19 30 Jun 14:06:41 14:11:50 85° 77° (ENE) 14:17:00 437.125/150
ITAMSAT 1 30 Jun 14:09:14 14:13:08 23° 69° (ENE) 14:17:12 435.822/435.867
SPROUT 30 Jun 14:16:15 14:19:59 29° 287° (WNW) 14:23:39 437.525
PHONESAT 2.4 30 Jun 14:37:51 14:40:38 22° 5° (N) 14:43:26 2401.200-2431.200
YUBILEINY 30 Jun 14:49:32 14:56:53 31° 73° (ENE) 15:04:29 435.215
RS-15 30 Jun 14:49:47 15:00:21 37° 252° (WSW) 15:10:50 29.354- 29.394
Cosmos 2491 30 Jun 15:04:49 15:10:44 22° 85° (E) 15:17:08 435.465 / 435.565
AO-7 30 Jun 15:07:44 15:13:45 24° 61° (ENE) 15:20:07 29.400- 29.500
BEESAT 30 Jun 15:07:53 15:12:42 86° 106° (ESE) 15:17:30 436.000
Gurwin Techsat 1B 30 Jun 15:14:05 15:19:23 78° 257° (WSW) 15:24:44 435.225
SWISSCUBE 30 Jun 15:22:49 15:27:33 59° 286° (WNW) 15:32:16 437.505
ITUPSAT 1 30 Jun 15:25:49 15:30:35 62° 285° (WNW) 15:35:19 437.325
VERMONT LUNAR 30 Jun 15:26:31 15:29:43 77° 210° (SSW) 15:32:56 437.305
STARS 30 Jun 15:29:25 15:30:31 11° 91° (E) 15:31:56 437.465
JAS-2 30 Jun 15:44:40 15:49:34 44° 73° (ENE) 15:54:31 435.910
ITAMSAT 1 30 Jun 15:47:41 15:52:27 35° 262° (W) 15:57:12 435.822/435.867
HORYU 2 30 Jun 15:53:42 15:57:36 32° 72° (ENE) 16:01:34 437.375
KKS-1 30 Jun 15:59:34 16:03:51 48° 100° (E) 16:08:08 437.445
AIST 1 30 Jun 16:10:16 16:13:52 26° 91° (E) 16:17:34
PHONESAT 2.4 30 Jun 16:15:44 16:19:08 49° 22° (NNE) 16:22:34 2401.200-2431.200
ISS 30 Jun 16:16:15 16:17:17 11° 29° (NNE) 16:18:24 145.825
PCSat 30 Jun 16:37:52 16:42:55 43° 111° (ESE) 16:48:03 145.827
YUBILEINY 30 Jun 16:45:41 16:54:00 48° 270° (W) 17:02:14 435.215
AO-7 30 Jun 16:57:41 17:05:58 68° 256° (WSW) 17:14:17 29.400- 29.500
Cosmos 2491 30 Jun 16:58:12 17:06:58 66° 279° (W) 17:15:44 435.465 / 435.565
SO-50 30 Jun 16:59:56 17:01:16 11° 108° (ESE) 17:02:56 436.795
STARS 30 Jun 17:03:04 17:07:17 48° 286° (WNW) 17:11:29 437.465
MOZHAYETS 4 30 Jun 17:20:41 17:24:56 35° 97° (E) 17:29:13
HORYU 2 30 Jun 17:31:20 17:34:20 17° 266° (W) 17:37:10 437.375
JAS-2 30 Jun 17:31:54 17:35:05 15° 268° (W) 17:37:57 435.910
KKS-1 30 Jun 17:38:12 17:40:07 12° 292° (WNW) 17:41:47 437.445
AIST 1 30 Jun 17:48:17 17:51:32 19° 285° (WNW) 17:54:39
ISS 30 Jun 17:50:50 17:54:04 76° 226° (SW) 17:57:17 145.825
CUTE-I 30 Jun 17:51:03 17:54:31 18° 68° (ENE) 17:58:13 437.470
PHONESAT 2.4 30 Jun 17:54:03 17:57:04 27° 215° (SW) 18:00:04 2401.200-2431.200
JUGNU 30 Jun 18:00:44 18:04:06 16° 167° (SSE) 18:07:32 437.505
Cosmos 2504 30 Jun 18:07:52 18:15:33 67° 82° (E) 18:23:49 435.465 / 435.565
BEESAT 3 30 Jun 18:16:22 18:20:23 65° 60° (ENE) 18:24:20 437.485
BEESAT 2 30 Jun 18:22:12 18:26:12 58° 60° (ENE) 18:30:09 435.950
Cubesat XI-IV 30 Jun 18:22:16 18:27:09 38° 72° (ENE) 18:32:07 437.490
PCSat 30 Jun 18:22:22 18:26:34 22° 306° (NW) 18:30:37 145.827
SO-50 30 Jun 18:36:42 18:41:19 60° 301° (WNW) 18:46:06 436.795
MOZHAYETS 4 30 Jun 18:58:43 19:01:55 18° 290° (WNW) 19:04:58
O/OREOS (USA 219) 30 Jun 18:59:03 19:03:31 60° 69° (ENE) 19:08:01 437.305
AIST 2 30 Jun 19:11:21 19:15:23 46° 58° (ENE) 19:19:22 435.215
BRITE-PL 30 Jun 19:11:39 19:13:33 12° 68° (ENE) 19:15:47 437.365/2234.400
CUBESAT XI-V 30 Jun 19:11:47 19:16:16 44° 99° (E) 19:20:43 437.345
CUTE-I 30 Jun 19:29:09 19:34:16 46° 261° (W) 19:39:26 437.470
PRISM 30 Jun 19:44:06 19:47:41 27° 97° (E) 19:51:17 437.425
JUGNU 30 Jun 19:47:58 19:52:32 23° 176° (S) 19:57:07 437.505
STRAND 1 30 Jun 19:57:56 20:02:50 44° 99° (E) 20:07:44 437.568
Cosmos 2504 30 Jun 20:03:12 20:08:29 19° 274° (W) 20:13:31 435.465 / 435.565
Cubesat XI-IV 30 Jun 20:03:16 20:07:23 21° 266° (W) 20:11:21 437.490
HO-68 30 Jun 20:06:38 20:12:12 26° 65° (ENE) 20:17:58 435.675
DOVE 4 30 Jun 20:13:50 20:17:03 18° 71° (ENE) 20:20:22 437.250
CUSAT 1 30 Jun 20:15:45 20:18:24 60° 81° (E) 20:20:57 437.405
SRMSAT 30 Jun 20:32:03 20:36:06 19° 170° (S) 20:40:12 437.500
AAUSAT CUBESAT 2 30 Jun 20:35:46 20:36:52 11° 69° (ENE) 20:38:13 437.432
GOMX 1 30 Jun 20:44:02 20:49:19 64° 76° (ENE) 20:54:21 467.674
BRITE-PL 30 Jun 20:45:57 20:51:36 76° 259° (WSW) 20:57:01 437.365/2234.400
DANDE 30 Jun 20:49:25 20:52:14 56° 264° (W) 20:54:46 436.750
CUBESAT XI-V 30 Jun 20:50:39 20:53:21 15° 291° (WNW) 20:55:49 437.345
CUTE 1.7 + AOD 2 30 Jun 20:51:03 20:54:50 34° 74° (ENE) 20:58:41 437.475
AIST 2 30 Jun 20:52:10 20:53:34 11° 251° (WSW) 20:54:43 435.215
CANX-2 30 Jun 20:53:33 20:57:29 42° 75° (ENE) 21:01:29 2200.000
COMPASS 1 30 Jun 20:55:43 20:59:00 24° 72° (ENE) 21:02:24 437.405
M-CUBED/EXP-1 PRIME 30 Jun 21:05:20 21:08:19 19° 100° (E) 21:11:36 437.505
CUBEBUG 2 30 Jun 21:13:13 21:15:22 14° 70° (ENE) 21:17:42 437.445
PRISM 30 Jun 21:19:57 21:22:57 19° 289° (WNW) 21:25:49 437.425
GONETS M04 30 Jun 21:20:37 21:29:14 66° 81° (E) 21:37:51
DELFI C3 30 Jun 21:21:28 21:22:22 11° 69° (ENE) 21:23:30 145.870
CINEMA 3 30 Jun 21:30:06 21:34:38 52° 75° (ENE) 21:39:00 145.822/145.860
ZACube-1 30 Jun 21:34:25 21:36:35 14° 70° (ENE) 21:38:57 437.345
JUGNU 30 Jun 21:36:30 21:41:00 22° 186° (S) 21:45:28 437.505
STRAND 1 30 Jun 21:38:16 21:41:44 18° 292° (WNW) 21:44:58 437.568
SEEDS 30 Jun 21:46:01 21:50:06 57° 260° (W) 21:54:13 437.485
DOVE 4 30 Jun 21:49:47 21:54:36 41° 262° (W) 21:59:08 437.250
Oscar 11 30 Jun 21:50:55 21:54:56 41° 75° (ENE) 21:59:00 145.826/435.025
HO-68 30 Jun 21:52:41 21:59:36 51° 260° (W) 22:06:30 435.675
AAUSAT CUBESAT 2 30 Jun 22:08:09 22:12:06 45° 261° (W) 22:16:05 437.432
AUBIESAT-1 30 Jun 22:08:52 22:13:04 84° 287° (WNW) 22:17:34 437.475
FUNcube-1 30 Jun 22:10:38 22:14:35 38° 74° (ENE) 22:18:29 145.935
UWE-3 30 Jun 22:11:11 22:15:25 54° 76° (ENE) 22:19:35 435.000/436.395/437.385
SRMSAT 30 Jun 22:20:05 22:24:42 24° 180° (S) 22:29:19 437.500
GOMX 1 30 Jun 22:25:37 22:27:48 12° 269° (W) 22:29:34 467.674
HUMSAT D 30 Jun 22:27:21 22:30:38 24° 73° (ENE) 22:34:01 437.325/437.525
CUTE 1.7 + AOD 2 30 Jun 22:28:31 22:30:54 14° 268° (W) 22:33:06 437.475
COMPASS 1 30 Jun 22:31:31 22:34:39 20° 266° (W) 22:37:40 437.405
CANX-2 30 Jun 22:32:03 22:33:41 12° 269° (W) 22:35:02 2200.000
VELOX 1 30 Jun 22:32:20 22:34:20 13° 69° (ENE) 22:36:34 145.980
Cosmos 2499 30 Jun 22:32:50 22:40:00 39° 77° (ENE) 22:47:47 435.465 / 435.565
M-CUBED/EXP-1 PRIME 30 Jun 22:39:25 22:43:08 31° 290° (WNW) 22:47:01 437.505
CUBEBUG 2 30 Jun 22:47:39 22:51:48 39° 262° (W) 22:55:50 437.445
DELFI C3 30 Jun 22:53:17 22:57:05 43° 261° (W) 23:00:56 145.870
DX 1 30 Jun 22:55:43 22:59:57 49° 74° (ENE) 23:04:12 434.975-435.025
ZACube-1 30 Jun 23:08:43 23:12:42 37° 262° (W) 23:16:36 437.345
ANTELSAT 30 Jun 23:09:25 23:12:51 23° 95° (E) 23:16:28 437.575/2403.000
CINEMA 3 30 Jun 23:10:34 23:12:07 11° 269° (W) 23:13:20 145.822/145.860
AISAT 30 Jun 23:15:34 23:19:49 44° 74° (ENE) 23:24:05 437.250
GONETS M04 30 Jun 23:19:14 23:25:26 21° 276° (W) 23:31:11
UKube-1 30 Jun 23:23:02 23:27:22 83° 257° (WSW) 23:31:44 .
TIGRISAT 30 Jun 23:23:21 23:27:15 32° 97° (E) 23:31:16 435.000
QB50P2 30 Jun 23:23:32 23:25:04 12° 91° (E) 23:26:52 145.880/145.840
50 SAT 30 Jun 23:24:25 23:28:11 62° 77° (ENE) 23:31:59 437.505
POPSAT HIP 1 30 Jun 23:25:20 23:26:55 12° 92° (E) 23:28:44 437.405
JUGNU 30 Jun 23:26:23 23:29:25 14° 195° (SSW) 23:32:20 437.505
Oscar 11 30 Jun 23:29:24 23:31:22 12° 269° (W) 23:33:04 145.826/435.025
ESTCUBE 1 30 Jun 23:32:16 23:36:30 41° 74° (ENE) 23:40:47 437.505/2401.250
CUBEBUG 1 30 Jun 23:46:54 23:51:11 51° 75° (ENE) 23:55:31 437.445
FUNcube-1 30 Jun 23:48:57 23:51:05 13° 268° (W) 23:52:58 145.935
UNISAT 6 01 Jul 00:00:53 00:05:15 82° 284° (WNW) 00:09:43 437.425
QB50P1 01 Jul 00:02:54 00:06:48 37° 98° (E) 00:10:43 145.935-145.965
HUMSAT D 01 Jul 00:03:16 00:06:22 20° 266° (W) 00:09:19 437.325/437.525
VELOX 1 01 Jul 00:06:14 00:10:32 46° 261° (W) 00:14:50 145.980
SRMSAT 01 Jul 00:09:11 00:13:18 19° 190° (S) 00:17:22 437.500
NANOSAT C BR1 01 Jul 00:18:37 00:22:46 60° 100° (E) 00:26:53 145.865
Cosmos 2499 01 Jul 00:26:03 00:33:05 35° 270° (W) 00:40:23 435.465 / 435.565
POLYITAN 1 01 Jul 00:26:37 00:30:50 79° 103° (ESE) 00:35:02 437.675
DUCHIFAT 1 01 Jul 00:27:01 00:31:13 75° 101° (ESE) 00:35:23 145.980
TISAT 1 01 Jul 00:28:27 00:31:55 25° 72° (ENE) 00:35:27 437.305
DX 1 01 Jul 00:35:10 00:36:31 11° 269° (W) 00:37:35 434.975-435.025
ANTELSAT 01 Jul 00:46:02 00:49:36 24° 288° (WNW) 00:53:07 437.575/2403.000
AISAT 01 Jul 00:54:29 00:56:39 13° 268° (W) 00:58:33 437.250
QB50P2 01 Jul 00:57:14 01:01:12 41° 286° (WNW) 01:05:09 145.880/145.840
POPSAT HIP 1 01 Jul 00:59:04 01:03:01 40° 286° (WNW) 01:06:56 437.405
TIGRISAT 01 Jul 01:00:52 01:03:48 17° 289° (WNW) 01:06:37 435.000
BUGSAT 1 01 Jul 01:02:51 01:06:51 58° 284° (WNW) 01:10:47 437.445
SPROUT 01 Jul 01:05:00 01:09:19 71° 258° (WSW) 01:13:39 437.525
ESTCUBE 1 01 Jul 01:11:03 01:13:35 14° 268° (W) 01:15:54 437.505/2401.250
CUBEBUG 1 01 Jul 01:26:37 01:27:53 11° 269° (W) 01:28:51 437.445
PCSat 01 Jul 01:31:44 01:34:36 15° 49° (NE) 01:37:41 145.827
QB50P1 01 Jul 01:40:06 01:42:22 14° 291° (WNW) 01:44:26 145.935-145.965
TISAT 1 01 Jul 02:04:25 02:07:40 20° 265° (W) 02:10:47 437.305
BEESAT 01 Jul 02:09:42 02:14:21 57° 75° (ENE) 02:19:03 436.000
Oscar 19 01 Jul 02:23:06 02:27:57 43° 99° (E) 02:32:50 437.125/150
SWISSCUBE 01 Jul 02:24:30 02:29:17 88° 259° (WSW) 02:34:05 437.505
ITUPSAT 1 01 Jul 02:27:47 02:32:33 89° 104° (ESE) 02:37:23 437.325
ITAMSAT 1 01 Jul 02:28:53 02:29:50 11° 90° (E) 02:31:13 435.822/435.867
KKS-1 01 Jul 02:53:40 02:57:17 25° 72° (ENE) 03:01:01 437.445
RS-15 01 Jul 02:54:26 03:04:51 57° 112° (ESE) 03:15:36 29.354- 29.394
SO-50 01 Jul 03:12:45 03:17:18 36° 55° (NE) 03:21:47 436.795
PCSat 01 Jul 03:13:13 03:18:37 69° 246° (WSW) 03:23:58 145.827
Cosmos 2491 01 Jul 03:14:29 03:22:56 51° 79° (ENE) 03:31:20 435.465 / 435.565
Gurwin Techsat 1B 01 Jul 03:35:03 03:40:19 63° 101° (E) 03:45:35 435.225
YUBILEINY 01 Jul 03:44:28 03:52:17 41° 89° (E) 04:00:16 435.215
BEESAT 01 Jul 03:51:07 03:52:37 11° 270° (W) 03:53:47 436.000
STARS 01 Jul 03:54:56 03:59:21 81° 78° (ENE) 04:03:46 437.465
AIST 1 01 Jul 03:58:49 04:03:09 65° 82° (E) 04:07:26
Oscar 19 01 Jul 04:03:31 04:07:01 18° 292° (WNW) 04:10:18 437.125/150
ITAMSAT 1 01 Jul 04:04:43 04:09:54 68° 285° (WNW) 04:15:04 435.822/435.867
MOZHAYETS 4 01 Jul 04:18:57 04:22:11 20° 71° (ENE) 04:25:34
KKS-1 01 Jul 04:30:19 04:33:53 23° 265° (W) 04:37:21 437.445
JAS-2 01 Jul 04:40:47 04:47:23 69° 101° (ESE) 04:54:47 435.910
SO-50 01 Jul 04:53:53 04:57:38 21° 250° (WSW) 05:01:10 436.795
AO-7 01 Jul 05:04:31 05:12:43 57° 102° (ESE) 05:20:53 29.400- 29.500
Cosmos 2491 01 Jul 05:12:14 05:19:24 28° 274° (W) 05:26:15 435.465 / 435.565
Gurwin Techsat 1B 01 Jul 05:17:09 05:19:50 14° 294° (WNW) 05:22:12 435.225
